Regional Weather Roundup
Issued by NWS Midland/Odessa, TX

Home | Current Version | Previous Version | Text Only | Print | Product List | Glossary On
Versions: 1 2 3 4 5 6 7 8 9 10 11 12 13 14 15 16 17 18 19 20 21 22 23 24 25 26 27 28 29 30 31 32 33 34 35 36 37 38 39 40 41 42 43 44 45 46 47 48 49 50
000
ASUS44 KMAF 301110
RWRMAF
MIDLAND AREA WEATHER ROUNDUP
NATIONAL WEATHER SERVICE MIDLAND TX
600 AM CDT FRI SEP 30 2016

...IN SOUTHWEST TEXAS AND SOUTHEAST NEW MEXICO...

CITY           SKY/WX    TMP DP  RH WIND       PRES   REMARKS
ALPINE         CLOUDY    56  51  85 S3        30.35S
ANDREWS        FAIR      53  49  85 E3        30.27F
ARTESIA        PTCLDY    55  52  88 E5        30.28S
BIG SPRING     PTCLDY    53  48  84 E6        30.28F
CARLSBAD       PTCLDY    58  51  78 SE7       30.25F
DRYDEN           N/A     61  54  77 N7        30.22F
FORT STOCKTON  CLEAR     60  53  77 SE8       30.24F
GUAD PASS      CLOUDY    56  47  71 NE22      30.33F
HOBBS          CLEAR     54  54 100 NE3       30.30S
MARFA          CLOUDY    55  51  86 NE5       30.32F
MIDLAND AIRPK  PTCLDY    56  49  76 CALM      30.27F
MIDLAND INTL   CLOUDY    57  49  74 E6        30.26F
ODESSA         PTCLDY    57  48  72 SE6       30.27F
PECOS          CLEAR     58  53  83 NE7       30.23S
PRESIDIO       FAIR      71  53  52 NE9       30.19F
SEMINOLE       PTCLDY    54  49  82 CALM      30.29F
SNYDER           N/A     54  47  79 NE3       30.27F
WINK           CLEAR     57  50  77 E6        30.23F
$$
...OTHER STATIONS IN TEXAS...

CITY           SKY/WX    TMP DP  RH WIND       PRES   REMARKS
ABILENE        CLOUDY    51  50  96 S3        30.27R
AMARILLO       CLEAR     48  42  80 S9        30.28F
AUSTIN         PTCLDY    54  52  93 CALM      30.19F
BROWNSVILLE    CLEAR     73  70  90 N5        30.07R
CORPUS CHRISTI PTCLDY    66  58  75 N10       30.12S
DALLAS FTW     CLEAR     60  53  77 N7        30.20R
DEL RIO        CLEAR     62  60  93 CALM      30.19F
EL PASO        CLOUDY    64  52  64 N21       30.26R
HOUSTON INT    CLEAR     60  54  80 CALM      30.15S
LUBBOCK        PTCLDY    53  46  77 S5        30.27F
SAN ANGELO     CLEAR     53  51  93 E3        30.26R
SAN ANTONIO    PTCLDY    61  51  70 N7        30.19F
WACO           CLEAR     52  51  97 W3        30.20S
WICHITA FALLS  NOT AVBL
$$
...OTHER LOCATIONS IN NEW MEXICO...

CITY           SKY/WX    TMP DP  RH WIND       PRES   REMARKS
ALAMAGORDO     CLOUDY    59  55  88 N9        30.33S
ALBUQUERQUE    CLOUDY    60  54  80 VRB5      30.34S
CANNON AFB     CLOUDY    53  50  89 S3        30.29F
CLOVIS         PTCLDY    54  45  71 S7        30.29F
HOLLOMAN AFB   RAIN      61  61 100 N6        30.31S FOG
ROSWELL        CLEAR     56  47  71 CALM      30.28F
RUIDOSO        CLOUDY    54  48  82 NW9G18    30.42F
SANTA FE       CLOUDY    54  49  83 E3        30.36F
TRUTH OR CONSE CLOUDY    58  55  90 N5        30.32F
TUCUMCARI      CLEAR     55  47  74 SW6       30.24F
$$




USA.gov is the U.S. government's official web portal to all federal, state and local government web resources and services.